Regional Weather Roundup
Issued by NWS

Home | Current Version | Previous Version | Graphics & Text | Print | Product List | Glossary On
Versions: 1 2 3 4 5 6 7 8 9 10 11 12 13 14 15 16 17 18 19 20 21 22 23 24 25 26 27 28 29 30 31 32 33 34 35 36 37 38 39 40 41 42 43 44 45 46 47 48 49 50
000
ASUS43 KBIS 050710
RWRND

NORTH DAKOTA REGIONAL WEATHER ROUNDUP
NATIONAL WEATHER SERVICE BISMARCK ND
200 AM CDT SAT SEP 05 2015

NOTE: "FAIR" INDICATES FEW OR NO CLOUDS BELOW 12,000 FEET WITH NO
SIGNIFICANT WEATHER AND/OR OBSTRUCTIONS TO VISIBILITY.


NDZ001>003-009>011-017-050800-
NORTHWEST NORTH DAKOTA

CITY           SKY/WX    TMP DP  RH WIND       PRES   REMARKS
WILLISTON      CLOUDY    60  56  86 N16       29.91F
MINOT          CLOUDY    61  59  93 N14       29.91R FOG
MINOT AFB      DRIZZLE   60  60 100 N10       29.91S FOG
$$

NDZ018>021-031>035-040>046-050800-
SOUTHWEST NORTH DAKOTA

CITY           SKY/WX    TMP DP  RH WIND       PRES   REMARKS
BISMARCK       CLEAR     69  66  90 NE7       29.84R
DICKINSON      FOG       63  61  93 W18       29.94R VSB 1/2
GARRISON         N/A     63  61  93 NE10      29.89R
HETTINGER ARPT CLOUDY    70  63  78 N8        29.88R
$$

NDZ004>008-012>016-024-026-027-054-050800-
NORTHEAST NORTH DAKOTA

CITY           SKY/WX    TMP DP  RH WIND       PRES   REMARKS
GRAND FORKS    CLEAR     66  64  93 N9        29.87R
GRND FRKS AFB  CLOUDY    64  64 100 N9        29.88R
DEVILS LAKE    CLOUDY    63  57  82 N10       29.89R
$$

NDZ022-023-025-028>030-036>039-047>053-050800-
SOUTHEAST NORTH DAKOTA

CITY           SKY/WX    TMP DP  RH WIND       PRES   REMARKS
FARGO          CLEAR     73  68  84 SE7       29.84R
JAMESTOWN      CLEAR     66  65  96 E5        29.84S FOG
$$




USA.gov is the U.S. government's official web portal to all federal, state and local government web resources and services.